{"data":{"norad_id":46144,"intl_designator":"2020-057AD","name":"STARLINK-1606","alt_names":[],"object_type":"PAYLOAD","status":"ACTIVE","operator":null,"country":"US","launch_date":"2020-08-18","launch_site_code":"AFETR","launch_vehicle":null,"mission":null,"orbit_class":"UNKNOWN","rcs_meters":null,"size_class":null,"mass_kg":null,"dimensions":null,"purposes":["comms"],"wikipedia_slug":null,"has_3d_model":false,"image_url":null,"decayed_at":null,"tle_current":{"epoch":"2026-05-25T00:00:02.000160Z","epoch_age_seconds":75163,"freshness":"FRESH","line1":"1 46144U 20057AD  26145.00002315  .00165204  00000+0  71519-3 0  9995","line2":"2 46144  53.0392 237.2040 0007014 325.0580 150.4212 15.83888677  6019","mean_motion":15.83888677,"eccentricity":0.0007014,"inclination_deg":53.0392,"raan_deg":237.204,"arg_perigee_deg":325.058,"mean_anomaly_deg":150.4212,"bstar":0.00071519,"rev_number":601,"period_min":90.915480419209,"perigee_km":314.75808988863,"apogee_km":324.15347304247,"semimajor_km":6697.5927814656,"source":"CELESTRAK","updated_at":"2026-05-25T13:38:16.467139Z"}}}